Location: B�di�
(14.6834°N, 3.1047°W)
Time: 14:18:17
(UTC+00:00)

SWIFT - Pass Details

Date: 24 January 2020
Orbit: 545 x 561 km, 20.6° (Epoch: 26 February)

Event Time Altitude Azimuth Distance (km) Brightness Sun altitude
Rises 20:05:31 0° 288° (WNW) 2,693 6.7 -28.2°
Reaches altitude 10° 20:07:53 10° 296° (WNW) 1,803 5.5 -28.8°
Enters shadow 20:09:30 21° 308° (NW) 1,252 4.5 -29.2°
